Angel Fire, NM

3:35 AM MDT on October 22, 2017 (GMT -0600)
Angel Fire

Weather History for KAXX - September, 2013

Change the Weather History Date:

Saturday, September 21, 2013

  Actual Average (KSKX) Record (KSKX)
Temperature  
Mean Temperature 53 °F -  
Max Temperature 68 °F 72 °F 80 °F (2005)
Min Temperature 38 °F 38 °F 28 °F (1996)
Degree Days  
Heating Degree Days 12    
Growing Degree Days 3 (Base 50)    
Moisture  
Dew Point 40 °F    
Average Humidity 72    
Maximum Humidity 98    
Minimum Humidity 32    
Precipitation  
Precipitation 0.00 in - - ()
Sea Level Pressure  
Sea Level Pressure 30.28 in    
Wind  
Wind Speed 2 mph (WSW)    
Max Wind Speed 17 mph    
Max Gust Speed 22 mph    
Visibility 8 miles    
Events Fog    
Averages and records for this station are not official NWS values.
T = Trace of Precipitation, MM = Missing Value Source: NWS Daily Summary

Daily Weather History Graph

Daily Weather History Graph

Search for Another Location

Airport or City:

Trip Planner

Search our weather history database for the weather conditions in past years. The results will help you decide how hot, cold, wet, or windy it might be!

Date:

Astronomy

Sep. 21, 2013 Rise Set
Actual Time 6:48 AM MDT 6:59 PM MDT
Civil Twilight 6:22 AM MDT 7:24 PM MDT
Nautical Twilight 5:52 AM MDT 7:54 PM MDT
Astronomical Twilight 5:22 AM MDT 8:25 PM MDT
Moon 8:17 PM MDT (9/21) 9:04 AM MDT (9/21)
Length of Visible Light 13h 02m
Length of Day
12h 10m
Waning Gibbous, 94% of the Moon is Illuminated
Sep 21
Waning Gibbous
Sep 26
Last Quarter
Oct 4
New
Oct 11
First Quarter
Oct 18
Full

Hourly Weather History & Observations

Time (MDT) Temp. Dew Point Humidity Pressure Visibility Wind Dir Wind Speed Gust Speed Precip Events Conditions
12:15 AM 40.8 °F 39.4 °F 95% 30.35 in 10.0 mi Calm Calm - N/A   Clear
12:35 AM 39.7 °F 37.9 °F 93% 30.35 in 10.0 mi Calm Calm - N/A   Clear
12:55 AM 40.3 °F 38.3 °F 93% 30.35 in 10.0 mi Calm Calm - N/A   Clear
1:15 AM 40.6 °F 39.0 °F 94% 30.34 in 10.0 mi Calm Calm - N/A   Clear
1:35 AM 38.8 °F 37.4 °F 95% 30.34 in 10.0 mi Calm Calm - N/A   Clear
1:55 AM 39.0 °F 37.6 °F 95% 30.34 in 10.0 mi Calm Calm - N/A   Clear
2:15 AM 39.4 °F 37.8 °F 94% 30.34 in 10.0 mi Calm Calm - N/A   Clear
2:35 AM 38.5 °F 37.2 °F 95% 30.34 in 10.0 mi Calm Calm - N/A   Scattered Clouds
2:55 AM 38.5 °F 37.4 °F 96% 30.34 in 10.0 mi Calm Calm - N/A   Mostly Cloudy
3:15 AM 40.3 °F 39.2 °F 96% 30.34 in 10.0 mi Calm Calm - N/A   Overcast
3:35 AM 41.5 °F 40.3 °F 95% 30.34 in 0.2 mi Calm Calm - N/A Fog Fog
3:55 AM 41.2 °F 40.3 °F 97% 30.33 in 0.2 mi Calm Calm - N/A Fog Fog
4:15 AM 41.2 °F 40.3 °F 97% 30.34 in 0.2 mi Calm Calm - N/A Fog Fog
4:35 AM 41.2 °F 40.3 °F 97% 30.33 in 0.2 mi Calm Calm - N/A Fog Fog
4:55 AM 41.4 °F 40.6 °F 97% 30.33 in 0.2 mi Calm Calm - N/A Fog Fog
5:15 AM 41.2 °F 40.5 °F 97% 30.34 in 0.2 mi Calm Calm - N/A Fog Fog
5:35 AM 40.5 °F 39.7 °F 97% 30.34 in 0.8 mi Calm Calm - N/A   Overcast
5:55 AM 40.5 °F 39.7 °F 97% 30.34 in 0.2 mi Calm Calm - N/A Fog Fog
6:15 AM 40.6 °F 40.1 °F 98% 30.34 in 0.2 mi Calm Calm - N/A Fog Fog
6:35 AM 40.5 °F 39.7 °F 97% 30.34 in 0.2 mi Calm Calm - N/A Fog Fog
6:55 AM 40.5 °F 39.7 °F 97% 30.34 in 0.2 mi Calm Calm - N/A Fog Fog
7:15 AM 40.1 °F 39.2 °F 97% 30.34 in 0.2 mi Calm Calm - N/A Fog Fog
7:35 AM 40.1 °F 39.2 °F 97% 30.34 in 0.2 mi Calm Calm - N/A Fog Fog
7:55 AM 40.5 °F 39.7 °F 97% 30.34 in 0.2 mi Calm Calm - N/A Fog Fog
8:15 AM 40.5 °F 39.9 °F 98% 30.34 in 0.2 mi Calm Calm - N/A Fog Fog
8:35 AM 41.0 °F 40.3 °F 97% 30.34 in 0.2 mi Calm Calm - N/A Fog Fog
8:55 AM 42.8 °F 42.3 °F 98% 30.34 in 0.2 mi Calm Calm - N/A Fog Fog
9:15 AM 44.6 °F 43.9 °F 97% 30.34 in 0.2 mi Calm Calm - N/A Fog Fog
9:35 AM 48.0 °F 47.3 °F 97% 30.34 in 10.0 mi Calm Calm - N/A   Scattered Clouds
9:55 AM 52.0 °F 51.1 °F 97% 30.33 in 10.0 mi Calm Calm - N/A   Clear
10:15 AM 56.7 °F 51.6 °F 83% 30.33 in 10.0 mi Calm Calm - N/A   Clear
10:35 AM 60.4 °F 50.9 °F 71% 30.32 in 10.0 mi Calm Calm - N/A   Clear
10:55 AM 63.5 °F 46.8 °F 54% 30.32 in 10.0 mi WSW 9.2 mph - N/A   Clear
11:15 AM 63.9 °F 44.8 °F 50% 30.32 in 10.0 mi WSW 6.9 mph - N/A   Clear
11:35 AM 65.1 °F 43.9 °F 46% 30.31 in 10.0 mi West 6.9 mph - N/A   Clear
11:55 AM 66.0 °F 41.0 °F 40% 30.30 in 10.0 mi SW 12.7 mph - N/A   Clear
12:15 PM 65.7 °F 40.5 °F 40% 30.30 in 10.0 mi SW 11.5 mph - N/A   Clear
12:35 PM 66.6 °F 39.0 °F 36% 30.30 in 10.0 mi WSW 17.3 mph 21.9 mph N/A   Clear
12:55 PM 66.7 °F 36.9 °F 33% 30.29 in 10.0 mi WSW 16.1 mph 20.7 mph N/A   Clear
1:15 PM 66.6 °F 37.8 °F 35% 30.28 in 10.0 mi WSW 12.7 mph 21.9 mph N/A   Clear
1:35 PM 66.6 °F 37.4 °F 34% 30.28 in 10.0 mi West 10.4 mph - N/A   Clear
1:55 PM 66.4 °F 36.9 °F 34% 30.27 in 10.0 mi West 11.5 mph 16.1 mph N/A   Clear
2:15 PM 66.7 °F 37.0 °F 33% 30.26 in 10.0 mi WSW 9.2 mph 16.1 mph N/A   Clear
2:35 PM 66.7 °F 38.5 °F 35% 30.25 in 10.0 mi West 13.8 mph 17.3 mph N/A   Clear
2:55 PM 67.1 °F 36.9 °F 33% 30.24 in 10.0 mi West 10.4 mph - N/A   Clear
3:15 PM 67.5 °F 36.5 °F 32% 30.23 in 10.0 mi WNW 8.1 mph 17.3 mph N/A   Scattered Clouds
3:35 PM 67.5 °F 36.1 °F 32% 30.23 in 10.0 mi West 11.5 mph 21.9 mph N/A   Clear
3:55 PM 68.0 °F 37.4 °F 33% 30.22 in 10.0 mi West 10.4 mph 17.3 mph N/A   Clear
4:15 PM 67.5 °F 36.7 °F 32% 30.22 in 10.0 mi WNW 12.7 mph 17.3 mph N/A   Clear
4:35 PM 67.5 °F 36.7 °F 32% 30.21 in 10.0 mi West 10.4 mph - N/A   Clear
4:55 PM 67.1 °F 37.9 °F 34% 30.21 in 10.0 mi West 10.4 mph - N/A   Clear
5:15 PM 66.7 °F 37.9 °F 35% 30.20 in 10.0 mi WNW 12.7 mph - N/A   Clear
5:35 PM 66.0 °F 36.3 °F 33% 30.20 in 10.0 mi WSW 10.4 mph - N/A   Clear
5:55 PM 65.3 °F 38.7 °F 38% 30.20 in 10.0 mi West 9.2 mph - N/A   Clear
6:15 PM 63.9 °F 39.6 °F 41% 30.20 in 10.0 mi West 8.1 mph - N/A   Clear
6:35 PM 61.3 °F 40.3 °F 46% 30.19 in 10.0 mi West 6.9 mph - N/A   Clear
6:55 PM 55.9 °F 42.1 °F 60% 30.19 in 10.0 mi Calm Calm - N/A   Clear
7:15 PM 54.1 °F 41.7 °F 63% 30.19 in 10.0 mi Calm Calm - N/A   Clear
7:35 PM 53.2 °F 42.6 °F 67% 30.20 in 10.0 mi SSE 3.5 mph - N/A   Clear
7:55 PM 51.4 °F 42.3 °F 71% 30.20 in 10.0 mi Calm Calm - N/A   Clear
8:15 PM 50.5 °F 42.3 °F 73% 30.20 in 10.0 mi Calm Calm - N/A   Clear
8:35 PM 48.2 °F 41.9 °F 79% 30.20 in 10.0 mi Calm Calm - N/A   Clear
8:55 PM 50.9 °F 41.5 °F 70% 30.21 in 10.0 mi Calm Calm - N/A   Clear
9:15 PM 47.3 °F 41.0 °F 79% 30.21 in 10.0 mi SSW 3.5 mph - N/A   Clear
9:35 PM 46.2 °F 41.0 °F 82% 30.21 in 10.0 mi Calm Calm - N/A   Clear
9:55 PM 44.6 °F 40.5 °F 85% 30.21 in 10.0 mi Calm Calm - N/A   Clear
10:15 PM 47.1 °F 40.8 °F 79% 30.21 in 10.0 mi South 4.6 mph - N/A   Clear
10:35 PM 45.0 °F 40.3 °F 84% 30.20 in 10.0 mi Calm Calm - N/A   Clear
10:55 PM 43.9 °F 40.1 °F 87% 30.20 in 10.0 mi Calm Calm - N/A   Clear
11:15 PM 45.5 °F 40.3 °F 82% 30.20 in 10.0 mi Calm Calm - N/A   Clear
11:35 PM 41.5 °F 38.3 °F 88% 30.20 in 10.0 mi Calm Calm - N/A   Clear
11:55 PM 41.7 °F 38.7 °F 89% 30.20 in 10.0 mi Calm Calm - N/A   Clear